This is the latest recevied weather packets stored in our database for station/object SP9EPI-13. If no packets are shown the sender has not sent any weather packets the latest 10 day(s).
| Time | Temp. | Humidity | Pressure | Rain* | Wind** | Luminosity | Snow |
|---|---|---|---|---|---|---|---|
| 1777125601 | 20° C | 41% | 1005.7 hPa | - | - | - | - |
| 1777125001 | 20° C | 44% | 1005.7 hPa | - | - | - | - |
| 1777124401 | 20° C | 47% | 1005.7 hPa | - | - | - | - |
| 1777123800 | 18.89° C | 50% | 1005.7 hPa | - | - | - | - |
| 1777123201 | 18.89° C | 49% | 1005.7 hPa | - | - | - | - |
| 1777122601 | 20° C | 51% | 1005.7 hPa | - | - | - | - |
| 1777122001 | 18.89° C | 53% | 1006.1 hPa | - | - | - | - |
| 1777121401 | 18.89° C | 58% | 1006.1 hPa | - | - | - | - |
| 1777120801 | 18.89° C | 57% | 1006.1 hPa | - | - | - | - |
| 1777120201 | 18.89° C | 59% | 1006.4 hPa | - | - | - | - |
| 1777119601 | 18.89° C | 59% | 1006.4 hPa | - | - | - | - |
| 1777119000 | 18.89° C | 59% | 1006.4 hPa | - | - | - | - |
| 1777118401 | 18.89° C | 59% | 1006.4 hPa | - | - | - | - |
| 1777117801 | 18.89° C | 59% | 1006.7 hPa | - | - | - | - |
| 1777117200 | 18.89° C | 61% | 1006.7 hPa | - | - | - | - |
| 1777116601 | 17.78° C | 61% | 1007.4 hPa | - | - | - | - |
| 1777116000 | 17.78° C | 62% | 1007.4 hPa | - | - | - | - |
| 1777115401 | 17.78° C | 62% | 1007.4 hPa | - | - | - | - |
| 1777114800 | 17.78° C | 63% | 1007.7 hPa | - | - | - | - |
| 1777114201 | 17.78° C | 64% | 1008.1 hPa | - | - | - | - |
| 1777113601 | 17.22° C | 65% | 1008.1 hPa | - | - | - | - |
| 1777113001 | 17.22° C | 65% | 1008.1 hPa | - | - | - | - |
| 1777112401 | 17.22° C | 67% | 1008.1 hPa | - | - | - | - |
| 1777111801 | 17.22° C | 71% | 1008.4 hPa | - | - | - | - |
| 1777111201 | 17.22° C | 69% | 1008.1 hPa | - | - | - | - |
* Rain since midnight (hover to see other rain measurements)
** Current wind speed in m/s (hover to see current wind gust speed)